Regional Weather Roundup
Issued by NWS

Home | Current Version | Previous Version | Text Only | Print | Product List | Glossary On
Versions: 1 2 3 4 5 6 7 8 9 10 11 12 13 14 15 16 17 18 19 20 21 22 23 24 25 26 27 28 29 30 31 32 33 34 35 36 37 38 39 40 41 42 43 44 45 46 47 48 49 50
000
ASUS44 KMEG 300210
RWRTN
TENNESSEE HOURLY STATE WEATHER ROUNDUP
NATIONAL WEATHER SERVICE MEMPHIS TN
900 PM CDT FRI APR 29 2016

TNZ002-004-019-021-049-052-054-088>092-300300-
WEST TENNESSEE

CITY           SKY/WX    TMP DP  RH WIND       PRES   REMARKS
MEMPHIS INTL   CLOUDY    65  61  87 SE8       29.87R
NWS MEMPHIS      N/A     63 N/A N/A MISG        N/A
JACKSON        CLOUDY    63  58  83 MISG      29.89S
DYERSBURG      CLOUDY    63  57  82 SE7         N/A
UNION CITY     CLEAR     61  61 100 CALM      29.89S
LEXINGTON      CLEAR     63  55  77 SE5       29.90F
$$

TNZ008-025-027-028-033-062-065-066-300300-
NORTH MIDDLE TENNESSEE

CITY           SKY/WX    TMP DP  RH WIND       PRES   REMARKS
NASHVILLE      CLOUDY    68  60  75 SE5       29.98R
CLARKSVILLE    CLOUDY    64  60  87 NE6       29.96R
SMYRNA         CLOUDY    67  61  81 SE3       29.99S
COOKEVILLE     PTCLDY    66  57  72 E8        29.97F
CROSSVILLE     CLOUDY    69  51  52 CALM      30.05R
$$

TNZ061-075-076-078-094-096-097-300300-
SOUTH MIDDLE TENNESSEE

CITY           SKY/WX    TMP DP  RH WIND       PRES   REMARKS
FAYETTEVILLE   PTCLDY    63  61  94 SE8       29.99F
TULLAHOMA      PTCLDY    64  61  88 SE6       30.02F
WINCHESTER     CLEAR     64  59  82 E3        30.02F
MCMINNVILLE    CLOUDY    66  59  77 W7        30.02R
COLUMBIA       MOCLDY   N/A N/A N/A S3        29.95R
SHELBYVILLE    MOCLDY    64  63  94 E5        30.00S
$$

TNZ017-018-042-046-047-300300-
NORTHEAST TENNESSEE

CITY           SKY/WX    TMP DP  RH WIND       PRES   REMARKS
TRI CITIES     MOCLDY    64  53  67 CALM      30.03R
$$

TNZ012-013-036-069-073-074-300300-
CENTRAL EAST TENNESSEE

CITY           SKY/WX    TMP DP  RH WIND       PRES   REMARKS
KNOXVILLE      CLOUDY    72  53  51 CALM      29.99S
OAK RIDGE      CLOUDY    70  58  65 CALM      30.00F
MORRISTOWN     CLOUDY    66  57  72 CALM      30.01S
$$

TNZ083-085-099-300300-
SOUTHEAST TENNESSEE

CITY           SKY/WX    TMP DP  RH WIND       PRES   REMARKS
CHATTANOOGA    CLOUDY    73  57  57 E3        29.99S
$$

SKY/WX REPORTED AS FAIR MEANS FEW OR NO CLOUDS BELOW
12 THOUSAND FEET.





USA.gov is the U.S. government's official web portal to all federal, state and local government web resources and services.